Andrews, TX

12:32 PM CST on December 14, 2019 (GMT -0600)
Andrews

Weather History for KE11 - October, 2019

Change the Weather History Date:

Saturday, October 12, 2019

  Actual Average (KMAF) Record (KMAF)
Temperature  
Mean Temperature 52 °F -  
Max Temperature 67 °F 76 °F 98 °F (1979)
Min Temperature 36 °F 51 °F 37 °F (1986)
Degree Days  
Heating Degree Days 14    
Growing Degree Days 2 (Base 50)    
Moisture  
Dew Point 22 °F    
Average Humidity 34    
Maximum Humidity 56    
Minimum Humidity 14    
Precipitation  
Precipitation 0.00 in - - ()
Sea Level Pressure  
Sea Level Pressure 30.18 in    
Wind  
Wind Speed 6 mph ()    
Max Wind Speed 14 mph    
Max Gust Speed 18 mph    
Visibility 10.0 miles    
Events      
Averages and records for this station are not official NWS values.
T = Trace of Precipitation, MM = Missing Value Source: Averaged Metar Reports

Daily Weather History Graph

Daily Weather History Graph

Search for Another Location

Airport or City:

Astronomy

Oct. 12, 2019 Rise Set
Actual Time 7:51 AM CDT 7:21 PM CDT
Civil Twilight 7:26 AM CDT 7:45 PM CDT
Nautical Twilight 6:58 AM CDT 8:14 PM CDT
Astronomical Twilight 6:30 AM CDT 8:42 PM CDT
Moon 7:11 PM CDT (10/12) 6:39 AM CDT (10/12)
Length of Visible Light 12h 18m
Length of Day
11h 29m
Waxing Gibbous, 99% of the Moon is Illuminated
Oct 12
Waxing Gibbous
Oct 13
Full
Oct 21
Last Quarter
Oct 27
New
Nov 4
First Quarter

Hourly Weather History & Observations

Time (CDT) Temp. Windchill Dew Point Humidity Pressure Visibility Wind Dir Wind Speed Gust Speed Precip Events Conditions
12:15 AM 40.5 °F 38.4 °F 17.8 °F 40% 30.33 in 10.0 mi ESE 3.5 mph - N/A   Clear
12:35 AM 40.5 °F 38.4 °F 17.2 °F 39% 30.32 in 10.0 mi SE 3.5 mph - N/A   Clear
12:55 AM 40.6 °F 38.6 °F 16.5 °F 38% 30.32 in 10.0 mi ESE 3.5 mph - N/A   Clear
1:15 AM 39.9 °F 36.7 °F 17.4 °F 40% 30.32 in 10.0 mi SE 4.6 mph - N/A   Clear
1:35 AM 39.2 °F 35.9 °F 17.8 °F 42% 30.32 in 10.0 mi ESE 4.6 mph - N/A   Clear
1:55 AM 38.7 °F 36.3 °F 18.1 °F 44% 30.32 in 10.0 mi ESE 3.5 mph - N/A   Clear
2:15 AM 37.0 °F 34.5 °F 22.1 °F 55% 30.32 in 10.0 mi SE 3.5 mph - N/A   Clear
2:35 AM 37.9 °F 35.5 °F 18.7 °F 46% 30.31 in 10.0 mi ESE 3.5 mph - N/A   Clear
2:55 AM 37.8 °F 35.3 °F 18.3 °F 46% 30.31 in 10.0 mi SE 3.5 mph - N/A   Clear
3:15 AM 38.3 °F 34.8 °F 17.1 °F 42% 30.31 in 10.0 mi SSE 4.6 mph - N/A   Clear
3:35 AM 38.3 °F 34.8 °F 17.8 °F 44% 30.30 in 10.0 mi SE 4.6 mph - N/A   Clear
3:55 AM 36.0 °F - 20.1 °F 53% 30.30 in 10.0 mi Calm Calm - N/A   Clear
4:15 AM 38.3 °F - 17.8 °F 44% 30.28 in 10.0 mi Calm Calm - N/A   Clear
4:35 AM 36.9 °F - 22.5 °F 56% 30.28 in 10.0 mi Calm Calm - N/A   Clear
4:55 AM 36.9 °F 33.1 °F 19.0 °F 49% 30.28 in 10.0 mi SSE 4.6 mph - N/A   Clear
5:15 AM 36.9 °F 33.1 °F 18.5 °F 47% 30.28 in 10.0 mi SSE 4.6 mph - N/A   Clear
5:35 AM 37.4 °F 33.8 °F 17.8 °F 45% 30.28 in 10.0 mi SSE 4.6 mph - N/A   Clear
5:55 AM 36.3 °F 33.7 °F 18.5 °F 48% 30.28 in 10.0 mi SSE 3.5 mph - N/A   Clear
6:15 AM 36.0 °F 32.1 °F 17.8 °F 48% 30.28 in 10.0 mi SSE 4.6 mph - N/A   Clear
6:35 AM 36.0 °F 31.1 °F 17.6 °F 47% 30.27 in 10.0 mi SSE 5.8 mph - N/A   Clear
6:55 AM 36.0 °F 32.1 °F 18.3 °F 49% 30.27 in 10.0 mi SSE 4.6 mph - N/A   Clear
7:15 AM 36.3 °F 30.8 °F 18.1 °F 48% 30.27 in 10.0 mi South 6.9 mph - N/A   Clear
7:35 AM 37.4 °F 32.8 °F 18.1 °F 46% 30.27 in 10.0 mi South 5.8 mph - N/A   Clear
7:55 AM 36.7 °F 32.0 °F 18.3 °F 47% 30.27 in 10.0 mi South 5.8 mph - N/A   Clear
8:15 AM 38.1 °F 33.7 °F 18.5 °F 45% 30.27 in 10.0 mi South 5.8 mph - N/A   Clear
8:35 AM 41.0 °F 37.1 °F 18.7 °F 41% 30.27 in 10.0 mi South 5.8 mph - N/A   Clear
8:55 AM 43.3 °F 38.6 °F 18.5 °F 37% 30.28 in 10.0 mi SSE 8.1 mph - N/A   Clear
9:15 AM 45.5 °F 41.3 °F 18.5 °F 34% 30.28 in 10.0 mi SSE 8.1 mph - N/A   Clear
9:35 AM 48.2 °F - 18.1 °F 30% 30.27 in 10.0 mi South 8.1 mph - N/A   Clear
9:55 AM 50.2 °F - 17.8 °F 28% 30.28 in 10.0 mi SSE 10.4 mph - N/A   Scattered Clouds
10:15 AM 52.2 °F - 17.8 °F 26% 30.27 in 10.0 mi SSE 10.4 mph - N/A   Scattered Clouds
10:35 AM 54.1 °F - 17.8 °F 24% 30.27 in 10.0 mi SSE 9.2 mph - N/A   Clear
10:55 AM 54.7 °F - 12.2 °F 19% 30.26 in 10.0 mi South 11.5 mph 17.3 mph N/A   Scattered Clouds
11:15 AM 56.3 °F - 12.0 °F 17% 30.26 in 10.0 mi SSE 12.7 mph 17.3 mph N/A   Mostly Cloudy
11:35 AM 56.3 °F - 9.0 °F 15% 30.25 in 10.0 mi SSE 12.7 mph 18.4 mph N/A   Overcast
11:55 AM 56.8 °F - 10.2 °F 16% 30.25 in 10.0 mi SSE 13.8 mph 18.4 mph N/A   Overcast
12:15 PM 57.0 °F - 10.4 °F 16% 30.24 in 10.0 mi SSE 12.7 mph 17.3 mph N/A   Overcast
12:35 PM 57.2 °F - 10.0 °F 15% 30.23 in 10.0 mi South 13.8 mph - N/A   Overcast
12:55 PM 56.8 °F - 10.0 °F 16% 30.22 in 10.0 mi South 11.5 mph 17.3 mph N/A   Overcast
1:15 PM 59.2 °F - 11.3 °F 15% 30.21 in 10.0 mi South 11.5 mph 17.3 mph N/A   Mostly Cloudy
1:35 PM 60.1 °F - 10.8 °F 14% 30.19 in 10.0 mi South 11.5 mph 16.1 mph N/A   Scattered Clouds
1:55 PM 61.5 °F - 13.3 °F 15% 30.18 in 10.0 mi South 12.7 mph - N/A   Clear
2:15 PM 61.3 °F - 15.4 °F 17% 30.16 in 10.0 mi South 6.9 mph 17.3 mph N/A   Clear
2:35 PM 62.2 °F - 18.3 °F 18% 30.14 in 10.0 mi South 8.1 mph - N/A   Clear
2:55 PM 63.3 °F - 23.2 °F 22% 30.12 in 10.0 mi SSE 10.4 mph - N/A   Clear
3:15 PM 64.8 °F - 24.1 °F 21% 30.10 in 10.0 mi South 9.2 mph - N/A   Clear
3:35 PM 66.0 °F - 24.6 °F 21% 30.09 in 10.0 mi South 6.9 mph - N/A   Clear
3:55 PM 66.9 °F - 28.4 °F 24% 30.08 in 10.0 mi South 11.5 mph - N/A   Clear
4:15 PM 66.2 °F - 28.9 °F 25% 30.07 in 10.0 mi South 9.2 mph 16.1 mph N/A   Clear
4:35 PM 66.6 °F - 28.6 °F 24% 30.07 in 10.0 mi South 9.2 mph - N/A   Clear
4:55 PM 65.1 °F - 28.2 °F 25% 30.07 in 10.0 mi South 8.1 mph 16.1 mph N/A   Scattered Clouds
5:15 PM 67.1 °F - 29.5 °F 25% 30.05 in 10.0 mi South 10.4 mph - N/A   Scattered Clouds
5:35 PM 64.9 °F - 30.7 °F 28% 30.05 in 10.0 mi South 9.2 mph - N/A   Mostly Cloudy
5:55 PM 64.9 °F - 30.2 °F 27% 30.04 in 10.0 mi South 6.9 mph - N/A   Overcast
6:15 PM 64.8 °F - 31.6 °F 29% 30.04 in 10.0 mi South 10.4 mph - N/A   Overcast
6:35 PM 65.3 °F - 31.1 °F 28% 30.04 in 10.0 mi South 10.4 mph - N/A   Overcast
6:55 PM 64.6 °F - 31.1 °F 29% 30.04 in 10.0 mi South 8.1 mph - N/A   Mostly Cloudy
7:15 PM 63.5 °F - 30.9 °F 29% 30.03 in 10.0 mi South 6.9 mph - N/A   Scattered Clouds
7:35 PM 61.7 °F - 30.0 °F 30% 30.03 in 10.0 mi South 6.9 mph - N/A   Scattered Clouds
7:55 PM 59.9 °F - 29.7 °F 32% 30.03 in 10.0 mi South 6.9 mph - N/A   Clear
8:15 PM 59.4 °F - 31.6 °F 35% 30.03 in 10.0 mi South 8.1 mph - N/A   Clear
8:35 PM 59.4 °F - 31.5 °F 35% 30.03 in 10.0 mi South 6.9 mph - N/A   Clear
8:55 PM 58.3 °F - 31.6 °F 36% 30.03 in 10.0 mi South 8.1 mph - N/A   Clear
9:15 PM 56.1 °F - 30.9 °F 38% 30.03 in 10.0 mi South 6.9 mph - N/A   Clear
9:35 PM 55.9 °F - 31.6 °F 40% 30.03 in 10.0 mi South 6.9 mph - N/A   Clear
9:55 PM 54.9 °F - 30.7 °F 40% 30.04 in 10.0 mi South 5.8 mph - N/A   Clear
10:15 PM 54.0 °F - 31.1 °F 42% 30.04 in 10.0 mi South 4.6 mph - N/A   Clear
10:35 PM 52.7 °F - 30.2 °F 42% 30.04 in 10.0 mi South 4.6 mph - N/A   Clear
10:55 PM 52.3 °F - 30.6 °F 43% 30.03 in 10.0 mi South 6.9 mph - N/A   Clear
11:15 PM 52.7 °F - 30.2 °F 42% 30.04 in 10.0 mi South 6.9 mph - N/A   Clear
11:35 PM 51.6 °F - 29.8 °F 43% 30.04 in 10.0 mi South 5.8 mph - N/A   Clear
11:55 PM 50.9 °F - 30.0 °F 45% 30.03 in 10.0 mi South 3.5 mph - N/A   Clear